Regional Weather Roundup
Issued by NWS

Home | Current Version | Previous Version | Graphics & Text | Print | Product List | Glossary On
Versions: 1 2 3 4 5 6 7 8 9 10 11 12 13 14 15 16 17 18 19 20 21 22 23 24 25 26 27 28 29 30 31 32 33 34 35 36 37 38 39 40 41 42 43 44 45 46 47 48 49 50
836
ASUS43 KFSD 211410
RWRSD

WEATHER ROUNDUP FOR SOUTH DAKOTA
NATIONAL WEATHER SERVICE SIOUX FALLS SD
900 AM CDT MON MAY 21 2018

NOTE: "FAIR" INDICATES FEW OR NO CLOUDS BELOW 12,000 FEET WITH NO
SIGNIFICANT WEATHER AND/OR OBSTRUCTIONS TO VISIBILITY.


SDZ001>005-009-010-012>017-211500-
NORTHWEST AND NORTH CENTRAL SOUTH DAKOTA

CITY           SKY/WX    TMP DP  RH WIND       PRES   REMARKS
BUFFALO          N/A     59  39  47 SE14      29.92S
FAITH            N/A     53  41  63 SE12      30.01F
MOBRIDGE       CLOUDY    59  45  59 S3        30.01S
$$

SDZ012>016-024>037-041>051-057-063-072>074-211500-
SOUTHWEST AND SOUTH CENTRAL SOUTH DAKOTA

CITY           SKY/WX    TMP DP  RH WIND       PRES   REMARKS
RAPID CTY ARPT SUNNY     49  44  83 SE10      29.99S
PIERRE         MOSUNNY   55  44  66 S3        30.02F
CUSTER         SUNNY     51  42  71 S8        30.03F
PHILIP         SUNNY     51  46  83 E6        30.02F
PINE RIDGE     SUNNY     57  48  72 S10       30.01S
SPEARFISH      FAIR      57  43  58 CALM      29.97F
WINNER         FAIR      59  49  69 SW5       30.03F
$$

SDZ004>011-016>023-039-040-211500-
NORTHEAST SOUTH DAKOTA

CITY           SKY/WX    TMP DP  RH WIND       PRES   REMARKS
ABERDEEN       CLOUDY    61  52  72 E7        30.03F
WATERTOWN      CLOUDY    56  55  97 SE5       30.04S
BROOKINGS      LGT RAIN  55  54  96 SE6       30.05S FOG
SISSETON         N/A     59  43  55 CALM      30.05S
$$

SDZ017-020-022-023-036>040-048>070-211500-
SOUTHEAST SOUTH DAKOTA

CITY           SKY/WX    TMP DP  RH WIND       PRES   REMARKS
SIOUX FALLS    CLOUDY    56  55  97 CALM      30.04S FOG
HURON          CLOUDY    56  53  90 SW5       30.03F
CHAMBERLAIN    MOSUNNY   61  51  69 SW3       30.05S
MITCHELL       CLOUDY    56  53  90 SW5       30.05S
YANKTON        CLOUDY    54  53  97 SW5       30.05F
$$

ABBREVIATIONS USED IN REMARKS
   TC - TEMPERATURE IN CELSIUS
  WCI - WIND CHILL INDEX
   HX - HEAT INDEX
  VSB - VISIBILITY





USA.gov is the U.S. government's official web portal to all federal, state and local government web resources and services.